Location: Newark
(46.2031°N, 3.4731°E)
Time: 06:19:35
(UTC+00:00)

OTV 5 (USA 277) - Pass Details

Date: 30 September 2019
Orbit: 310 x 324 km, 54.5° (Epoch: 17 October)

Event Time Altitude Azimuth Distance (km) Brightness Sun altitude
Rises 04:51:51 0° 192° (SSW) 2,061 ? -9.6°
Reaches altitude 10° 04:54:29 10° 163° (SSE) 1,234 ? -9.2°
Maximum altitude 04:55:56 13° 131° (SE) 1,061 ? -8.9°
Drops below altitude 10° 04:57:24 10° 99° (E) 1,238 ? -8.7°
Sets 05:00:02 0° 71° (ENE) 2,073 ? -8.2°
